Regional Weather Roundup
Issued by NWS State College, PA

Home | Current Version | Previous Version | Text Only | Print | Product List | Glossary Off
Versions: 1 2 3 4 5 6 7 8 9 10 11 12 13 14 15 16 17 18 19 20 21 22 23 24 25 26 27 28 29 30 31 32 33 34 35 36 37 38 39 40 41 42 43 44 45 46 47 48 49 50

000
ASUS41 KCTP 301403
RWRCTP

REGIONAL WEATHER ROUNDUP
NATIONAL WEATHER SERVICE STATE COLLEGE PA
1000 AM EDT TUE SEP 30 2014

Note: "fair" indicates few or no clouds below 12,000 feet with no
significant weather and/or obstructions to visibility.

* = STATION THAT DOES NOT REPORT PRECIPITATION /E.G. RAIN...SNOW...ETC/
    THUNDER OR FOG.

PAZ002>004-007>009-013>016-020>023-029>032-301500-
WESTERN PENNSYLVANIA

CITY           SKY/WX    TMP DP  RH WIND       PRES   REMARKS
ERIE           RAIN      60  56  86 SE7       29.91F FOG
MEADVILLE      CLOUDY    58  55  90 N7        29.94R
FRANKLIN*      MOSUNNY   61  54  77 CALM      29.93S
NEW CASTLE       N/A     58  58 100 CALM      29.94R
BEAVER COUNTY  SUNNY     63  57  82 CALM      29.92R
BUTLER*        MOSUNNY   61  55  82 S5        29.93S
PITTSBURGH INT MOSUNNY   63  58  83 CALM      29.91R
PITTSBURGH     SUNNY     64  57  78 VRB5      29.91R
INDIANA*       SUNNY     68  61  77 SW7       29.96S
LATROBE        MOSUNNY   66  63  88 SW9       29.93S
WASHINGTON CO* SUNNY     64  61  88 SW5       29.94R
$$

PAZ004>006-010>012-017>019-024>028-033>037-041-042-045-046-049>053-301500-
CENTRAL PENNSYLVANIA

CITY           SKY/WX    TMP DP  RH WIND       PRES   REMARKS
BRADFORD       MOSUNNY   61  56  83 CALM      29.93F
DUBOIS         MOSUNNY   62  56  80 CALM      29.93R
CLEARFIELD     CLOUDY    55  55 100 CALM      29.94S FOG
JOHNSTOWN      SUNNY     64  57  78 S6        29.95S
ALTOONA        SUNNY     67  59  75 CALM      29.94S
STATE COLLEGE  FOG       57  57 100 CALM      29.94S VSB 3/4
WILLIAMSPORT   CLOUDY    60  57  89 VRB3      29.93S FOG
SELINSGROVE    CLOUDY    59  59 100 CALM      29.95S FOG
FT INDIANTOWN  CLOUDY    64  64 100 E3        29.95S FOG
CAPITAL CITY   CLOUDY    63  61  93 E9        29.94S FOG
HARRISBURG     FOG       62  61  96 SE6       29.94S VSB 3/4
YORK           CLOUDY    65  62  90 CALM      29.94F FOG
$$

PAZ038>040-043-044-047-048-054-055-060>062-067>071-301500-
EASTERN PENNSYLVANIA

CITY           SKY/WX    TMP DP  RH WIND       PRES   REMARKS
SCRANTON       MOSUNNY   67  58  72 VRB3      29.95F
MOUNT POCONO   PTSUNNY   62  56  80 SE7       29.99S HAZE
ALLENTOWN      CLOUDY    63  61  93 VRB3      29.96S FOG
QUAKERTOWN*    CLOUDY    63  63 100 CALM      29.97F
READING        CLOUDY    67  60  78 S3        29.95R
LANCASTER      PTSUNNY   64  62  93 SE3       29.95S FOG
COATESVILLE    SUNNY     66  61  82 CALM      29.96F
POTTSTOWN      CLOUDY    64  62  93 CALM      29.97F FOG
BLUE BELL      MOSUNNY   70  63  78 CALM      29.95S
DOYLESTOWN     MOSUNNY   64  60  87 CALM      29.96R
WILLOW GROVE   NOT AVBL
NORTH PHILA    PTSUNNY   71  58  63 N3        29.97S
PHILADELPHIA   PTSUNNY   71  57  61 CALM      29.95S
$$



USA.gov is the U.S. government's official web portal to all federal, state and local government web resources and services.